Buger, Spain

6:51 AM CEST on April 21, 2018 (GMT +0200)
Buger

Weather History for 08306 - May, 2013

Change the Weather History Date:

Wednesday, May 29, 2013

  Actual Average Record
Temperature  
Mean Temperature 62 °F -  
Max Temperature 70 °F 81 °F - ()
Min Temperature 55 °F 60 °F - ()
Degree Days  
Heating Degree Days 2    
Growing Degree Days 12 (Base 50)    
Moisture  
Dew Point 49 °F    
Average Humidity 64    
Maximum Humidity 94    
Minimum Humidity 24    
Precipitation  
Precipitation 0.00 in 0.02 in - ()
Sea Level Pressure  
Sea Level Pressure 29.84 in    
Wind  
Wind Speed 5 mph ()    
Max Wind Speed 18 mph    
Max Gust Speed 17 mph    
Visibility 7.1 miles    
Events      
T = Trace of Precipitation, MM = Missing Value Source: Averaged Metar Reports

Daily Weather History Graph

Daily Weather History Graph

Search for Another Location

Airport or City:

Astronomy

May. 29, 2013 Rise Set
Actual Time 6:25 AM CEST 9:08 PM CEST
Civil Twilight 5:53 AM CEST 9:40 PM CEST
Nautical Twilight 5:13 AM CEST 10:19 PM CEST
Astronomical Twilight 4:29 AM CEST 11:04 PM CEST
Moon 12:20 AM CEST (5/29) 11:05 AM CEST (5/29)
Length of Visible Light 15h 46m
Length of Day
14h 43m
Waning Gibbous, 76% of the Moon is Illuminated
May 29
Waning Gibbous
May 31
Last Quarter
Jun 8
New
Jun 16
First Quarter
Jun 23
Full

Hourly Weather History & Observations

Time (CEST) Temp. Dew Point Humidity Pressure Visibility Wind Dir Wind Speed Gust Speed Precip Events Conditions
12:00 AM 62.6 °F 55.4 °F 77% 29.83 in 6.2 mi Variable 2.3 mph - N/A   Scattered Clouds
12:30 AM 60.8 °F 55.4 °F 82% 29.83 in 6.2 mi ENE 6.9 mph - N/A   Partly Cloudy
1:00 AM 59.0 °F 55.4 °F 88% 29.86 in 6.2 mi NE 5.8 mph - N/A   Partly Cloudy
1:30 AM 59.0 °F 55.4 °F 88% 29.86 in 6.2 mi NNE 2.3 mph - N/A   Partly Cloudy
2:00 AM 58 °F 54 °F 83% 29.86 in 11 mi ENE 2.3 mph - -   Partly Cloudy
2:00 AM 59.0 °F 55.4 °F 88% 29.86 in 6.2 mi ENE 3.5 mph - N/A   Partly Cloudy
2:30 AM 57.2 °F 55.4 °F 94% 29.86 in - ENE 1.2 mph - N/A   Clear
3:00 AM 57.2 °F 55.4 °F 94% 29.86 in - Variable 2.3 mph - N/A   Clear
3:30 AM 59.0 °F 55.4 °F 88% 29.83 in - ENE 3.5 mph - N/A   Clear
4:00 AM 59.0 °F 55.4 °F 88% 29.83 in - ENE 2.3 mph - N/A   Clear
4:30 AM 59.0 °F 55.4 °F 88% 29.83 in - NE 2.3 mph - N/A   Clear
5:00 AM 57.2 °F 53.6 °F 88% 29.83 in - NE 3.5 mph - N/A   Clear
5:30 AM 57.2 °F 55.4 °F 94% 29.83 in - NNE 3.5 mph - N/A   Clear
6:00 AM 57.2 °F 53.6 °F 88% 29.83 in 6.2 mi Calm Calm - N/A   Partly Cloudy
6:30 AM 57.2 °F 55.4 °F 94% 29.83 in 6.2 mi South 2.3 mph - N/A   Partly Cloudy
7:00 AM 57.2 °F 53.6 °F 88% 29.83 in 6.2 mi Calm Calm - N/A   Partly Cloudy
7:30 AM 57.2 °F 53.6 °F 88% 29.83 in 6.2 mi Calm Calm - N/A   Partly Cloudy
8:00 AM 60 °F 54 °F 76% 29.85 in 16 mi East 1.2 mph - -   Scattered Clouds
8:00 AM 59.0 °F 55.4 °F 88% 29.83 in 6.2 mi Variable 1.2 mph - N/A   Partly Cloudy
8:30 AM 62.6 °F 55.4 °F 77% 29.83 in 6.2 mi Calm Calm - N/A   Partly Cloudy
9:00 AM 62.6 °F 53.6 °F 72% 29.83 in 6.2 mi WNW 5.8 mph - N/A   Partly Cloudy
9:30 AM 62.6 °F 50.0 °F 63% 29.86 in 6.2 mi NW 4.6 mph - N/A   Scattered Clouds
10:00 AM 66.2 °F 46.4 °F 49% 29.83 in 6.2 mi NW 6.9 mph - N/A   Scattered Clouds
10:30 AM 68.0 °F 39.2 °F 35% 29.83 in 6.2 mi NW 3.5 mph - N/A   Scattered Clouds
11:00 AM 68.0 °F 41.0 °F 37% 29.83 in 6.2 mi NW 10.4 mph - N/A   Scattered Clouds
11:30 AM 68.0 °F 39.2 °F 35% 29.86 in 6.2 mi NW 10.4 mph - N/A   Scattered Clouds
12:00 PM 64.4 °F 42.8 °F 45% 29.86 in 6.2 mi NNW 16.1 mph - N/A   Mostly Cloudy
12:30 PM 64.4 °F 44.6 °F 49% 29.86 in 6.2 mi NNW 10.4 mph - N/A   Mostly Cloudy
1:00 PM 64.4 °F 44.6 °F 49% 29.86 in 6.2 mi Variable 2.3 mph - N/A   Mostly Cloudy
1:30 PM 66.2 °F 41.0 °F 40% 29.86 in 6.2 mi Calm Calm - N/A   Mostly Cloudy
2:00 PM 71 °F 42 °F 24% 29.85 in 19 mi NW 10.4 mph - -   Scattered Clouds
2:00 PM 69.8 °F 41.0 °F 35% 29.83 in 6.2 mi WNW 5.8 mph 17.3 mph N/A   Mostly Cloudy
2:30 PM 69.8 °F 41.0 °F 35% 29.83 in 6.2 mi WNW 11.5 mph - N/A   Scattered Clouds
3:00 PM 66.2 °F 46.4 °F 49% 29.83 in 6.2 mi WSW 9.2 mph - N/A   Scattered Clouds
3:30 PM 66.2 °F 42.8 °F 43% 29.83 in 6.2 mi NW 15.0 mph - N/A   Scattered Clouds
4:00 PM 68.0 °F 42.8 °F 40% 29.83 in 6.2 mi NNW 13.8 mph - N/A   Scattered Clouds
4:30 PM 68.0 °F 44.6 °F 43% 29.83 in 6.2 mi NNW 16.1 mph - N/A   Scattered Clouds
5:00 PM 69.8 °F 42.8 °F 38% 29.83 in 6.2 mi NW 16.1 mph - N/A   Scattered Clouds
5:30 PM 69.8 °F 44.6 °F 40% 29.83 in 6.2 mi West 13.8 mph - N/A   Scattered Clouds
6:00 PM 69.8 °F 44.6 °F 40% 29.83 in 6.2 mi WSW 18.4 mph - N/A   Scattered Clouds
6:30 PM 68.0 °F 46.4 °F 46% 29.83 in 6.2 mi WSW 17.3 mph - N/A   Partly Cloudy
7:00 PM 66.2 °F 48.2 °F 52% 29.83 in 6.2 mi WSW 16.1 mph - N/A   Partly Cloudy
7:30 PM 66.2 °F 48.2 °F 52% 29.83 in 6.2 mi WSW 13.8 mph - N/A   Partly Cloudy
8:00 PM 65 °F 47 °F 42% 29.85 in 19 mi WSW 15.0 mph - -   Scattered Clouds
8:00 PM 64.4 °F 48.2 °F 56% 29.83 in 6.2 mi WSW 15.0 mph - N/A   Partly Cloudy
8:30 PM 64.4 °F 48.2 °F 56% 29.86 in 6.2 mi WSW 12.7 mph - N/A   Partly Cloudy
9:00 PM 62.6 °F 48.2 °F 59% 29.86 in 6.2 mi WSW 10.4 mph - N/A   Partly Cloudy
9:30 PM 62.6 °F 50.0 °F 63% 29.86 in 6.2 mi WSW 10.4 mph - N/A   Partly Cloudy
10:00 PM 60.8 °F 50.0 °F 68% 29.89 in 6.2 mi WSW 10.4 mph - N/A   Partly Cloudy
10:30 PM 60.8 °F 51.8 °F 72% 29.89 in 6.2 mi West 10.4 mph - N/A   Partly Cloudy
11:00 PM 60.8 °F 51.8 °F 72% 29.89 in 6.2 mi WSW 8.1 mph - N/A   Partly Cloudy
11:30 PM 59.0 °F 51.8 °F 77% 29.89 in - WSW 4.6 mph - N/A   Clear